EW2309 Weather Reports


Display with metric or nautical units.
time (UTC)temp
F
wind
direction
speed
MPH
gust
MPH
rain 1hr
in
rain 24hr
in
rain mn
in
humidity
%
barometer
mb
20260503224539 64 163 0.0 4.0 0.00 0.00 0.00 48 1017.2
20260503223042 65 331 0.0 0.0 0.00 0.00 0.00 51 1017.3
20260503221530 66 329 0.0 4.0 0.00 0.00 0.00 46 1017.2
20260503220021 66 246 1.0 3.0 0.00 0.00 0.00 46 1017.2
20260503214502 67 5 1.0 8.0 0.00 0.00 0.00 47 1017.4
20260503213002 68 45 1.0 5.0 0.00 0.00 0.00 47 1017.5
20260503211609 67 200 0.0 2.0 0.00 0.00 0.00 46 1017.7
20260503210040 68 200 1.0 4.0 0.00 0.00 0.00 46 1017.9
20260503204538 67 188 1.0 9.0 0.00 0.00 0.00 46 1018.1
20260503203019 67 199 1.0 3.0 0.00 0.00 0.00 44 1018.4
20260503201527 67 235 2.0 6.0 0.00 0.00 0.00 44 1018.7
20260503200058 66 221 2.0 9.0 0.00 0.00 0.00 45 1019.0
20260503194556 67 46 0.0 4.0 0.00 0.00 0.00 44 1019.2
20260503193041 66 218 2.0 7.0 0.00 0.00 0.00 43 1019.5
20260503191536 65 84 1.0 6.0 0.00 0.00 0.00 42 1019.6
20260503190020 64 123 0.0 3.0 0.00 0.00 0.00 48 1019.8
20260503184520 65 87 1.0 5.0 0.00 0.00 0.00 42 1019.9
20260503183059 66 91 1.0 3.0 0.00 0.00 0.00 43 1020.0
20260503181619 64 61 0.0 3.0 0.00 0.00 0.00 43 1020.2
20260503180031 63 199 1.0 5.0 0.00 0.00 0.00 44 1020.3
20260503174529 62 207 1.0 4.0 0.00 0.00 0.00 47 1020.6
20260503173037 61 184 3.0 7.0 0.00 0.00 0.00 49 1020.7
20260503171514 62 340 2.0 5.0 0.00 0.00 0.00 48 1021.0
20260503120106 42 165 0.0 0.0 0.00 0.00 0.00 94 1021.1
20260503081505 42 165 0.0 0.0 0.00 0.00 0.00 88 1019.0
20260503071537 44 165 0.0 0.0 0.00 0.00 0.00 86 1018.6
20260503054537 45 168 0.0 0.0 0.00 0.00 0.00 83 1018.3
20260503053030 45 167 0.0 0.0 0.00 0.00 0.00 83 1018.4
20260503051517 45 169 0.0 0.0 0.00 0.00 0.00 82 1018.2
20260503050059 45 175 0.0 0.0 0.00 0.00 0.00 80 1018.1
20260503044625 46 178 0.0 0.0 0.00 0.00 0.00 79 1018.1
20260503043036 47 174 0.0 0.0 0.00 0.00 0.00 76 1017.8
20260503041534 47 169 0.0 0.0 0.00 0.00 0.00 76 1017.8
20260503040019 48 169 0.0 0.0 0.00 0.00 0.00 74 1017.7
20260503034518 49 169 0.0 0.0 0.00 0.00 0.00 73 1017.7
20260503033018 49 171 0.0 3.0 0.00 0.00 0.00 73 1017.6
20260503031517 49 184 0.0 2.0 0.00 0.00 0.00 73 1017.7
20260503030017 50 182 0.0 2.0 0.00 0.00 0.00 71 1017.7
20260503024514 51 182 0.0 1.0 0.00 0.00 0.00 69 1017.7
20260503023011 51 182 0.0 2.0 0.00 0.00 0.00 68 1017.5
20260503021516 51 198 0.0 0.0 0.00 0.00 0.00 67 1017.1
20260503020054 52 199 0.0 0.0 0.00 0.00 0.00 66 1016.8
20260503014554 52 201 0.0 0.0 0.00 0.00 0.00 64 1016.6
20260503013029 54 205 0.0 0.0 0.00 0.00 0.00 60 1016.3
20260503011528 54 209 0.0 3.0 0.00 0.00 0.00 59 1016.1
20260503010025 55 276 0.0 0.0 0.00 0.00 0.00 58 1016.0
20260503004524 56 269 0.0 2.0 0.00 0.00 0.00 56 1015.8
20260503003030 57 267 0.0 5.0 0.00 0.00 0.00 54 1015.5
20260503001524 57 242 1.0 5.0 0.00 0.00 0.00 54 1015.4
20260503000029 58 76 0.0 1.0 0.00 0.00 0.00 53 1015.1
20260502234542 58 71 0.0 0.0 0.00 0.00 0.00 51 1014.8
20260502233022 59 71 0.0 2.0 0.00 0.00 0.00 48 1014.6
20260502231504 60 72 0.0 3.0 0.00 0.00 0.00 51 1014.4
20260502230004 60 131 0.0 2.0 0.00 0.00 0.00 45 1014.4